Regional Weather Roundup
Issued by NWS Pendleton, OR

Home | Current Version | Previous Version | Text Only | Print | Product List | Glossary On
Versions: 1 2 3 4 5 6 7 8 9 10 11 12 13 14 15 16 17 18 19 20 21 22 23 24 25 26 27 28 29 30 31 32 33 34 35 36 37 38 39 40 41 42 43 44 45 46 47 48 49 50
360
ASUS46 KPDT 040810
RWRPDT
PENDLETON REGIONAL WEATHER ROUNDUP
NATIONAL WEATHER SERVICE PENDLETON OREGON
1200 AM PST SUN DEC 4 2016

NOTE: FAIR INDICATES FEW OR NO CLOUDS BELOW 12,000 FEET WITH NO
SIGNIFICANT WEATHER AND/OR OBSTRUCTIONS TO VISIBILITY.

# INDICATES UNOFFICIAL STATION AND DATA

WAZ520-040910-
EAST SLOPES OF WASHINGTON CASCADES

CITY            SKY/WX      TMP DP  RH  WIND    PRES   REMARKS
#CLE ELUM HS    N/A         34  32  92  CALM    29.95F
#CLE ELUM LAKE  N/A         33  32  96  W1      29.99F
#GLENWOOD       N/A         39  36  89  SW5     30.09F
#MANASTASH CYN  N/A         33  29  85  CALM    29.92F
#NELSON 3SW     N/A         31  30  96  CALM    30.21F
#NILE           N/A         36  33  89  CALM    29.28F
#RONALD 2NW     N/A         32  N/A N/A W1      29.92F
#TEANAWAY 4NE   N/A         33  32  96  CALM    N/A
#TROUT LAKE 1NE N/A         37  35  92  CALM    30.11F
#TROUT LAKE 1E  N/A         38  37  96  CALM    30.06F
$$

WAZ521-040910-
SIMCOE HIGHLANDS

CITY            SKY/WX      TMP DP  RH  WIND    PRES   REMARKS
#CENTERVILLE 1SWN/A         39  35  85  W9      30.08F
#GOLDENDALE 1NE N/A         42  28  57  SW3     N/A
#GOLDENDALE 4W  N/A         42  20  41  W8      30.09F
#GOODNOE HILLS  N/A         43  34  70  SW17    29.97F WCI 35
#LYLE 6NE       N/A         40  38  92  SW8     30.07F
$$

WAZ026-040910-
KITTITAS VALLEY

CITY            SKY/WX      TMP DP  RH  WIND    PRES   REMARKS
ELLENSBURG AP   CLOUDY      39  34  82  W7      29.97F
#ELLENSBURG CWU N/A         37  34  89  W5      29.95F
#ELLENSBURG 3NE N/A         39  35  85  N1      29.98F
#ELLENSBURG 1E  N/A         37  N/A N/A CALM    N/A
#KITTITAS 4N    N/A         35  30  82  CALM    30.00F
#KITTITAS 3S    N/A         36  33  89  NW2     30.01F
#THORP 6N       N/A         34  33  96  N3      30.03F
$$

WAZ027-040910-
YAKIMA VALLEY

CITY            SKY/WX      TMP DP  RH  WIND    PRES   REMARKS
YAKIMA AIRPORT  CLOUDY      34  29  82  NW6     30.00F
YAKIMA-VAGABOND MOCLEAR     40  29  64  CALM    29.97F
#GRANDVIEW      N/A         44  34  68  S1      30.07F
#MABTON         N/A         48  38  68  SW12    30.03F WCI 43
#NACHES 2SW     N/A         42  35  76  SW9     29.98F
#TERRACE HTS    N/A         40  33  76  CALM    30.01F
#TOPPENISH      N/A         47  35  63  CALM    29.95F
#WEST VALLEY    N/A         37  31  79  CALM    30.01F
#W YAKIMA       N/A         40  32  73  CALM    30.02F
#WHITE SWAN 5E  N/A         46  35  65  CALM    30.03F
#WILEY CITY 3W  N/A         33  26  75  CALM    29.96F
$$

WAZ028-040910-
LOWER COLUMBIA BASIN...WASHINGTON

CITY            SKY/WX      TMP DP  RH  WIND    PRES   REMARKS
PASCO           CLOUDY      48  35  60  SW23G32 30.05F WCI 40
PROSSER AWOS    N/A         46  37  71  S16G24  30.06F WCI 39
RICHLAND AWOS   CLOUDY      49  36  61  S25G35  30.06F WCI 41
#BENTON CITY    N/A         45  36  70  SW8     29.95F
#CONNELL 5N     N/A         41  37  86  S7      30.05F
#CONNELL 5NW    N/A         41  37  86  S8      30.01F
#ELTOPIA 6NW    N/A         45  38  76  CALM    29.00F
#KAHLOTUS       N/A         42  35  76  W22G29  30.05F WCI 33
#KENNEWICK 3S   N/A         44  35  70  N8      30.07F
#PATERSON       N/A         46  36  68  W2      30.07F
#SAGEMOOR 2W    N/A         45  36  70  SW21G29 29.89F WCI 37
#TOUCHET 2S     N/A         48  33  56  SW17G25 30.06S WCI 42
#WEST PASCO     N/A         48  36  63  SW8     30.07S
$$

WAZ029-040910-
FOOTHILLS OF THE BLUES...WASHINGTON

CITY            SKY/WX      TMP DP  RH  WIND    PRES   REMARKS
WALLA WALLA AP  CLOUDY      45  31  58  SW15    30.09F WCI 38
#CLYDE 6NW      N/A         42  33  70  SW13    30.06F WCI 35
#DAYTON SCHOOL  N/A         44  27  51  SW7     30.09S
#LOWDEN 2SE     N/A         48  34  58  W9      30.06F
#PLEASANT VIEW 1N/A         38  33  82  S13     30.10F WCI 30
#PRESCOTT       N/A         44  35  70  S1      30.08F
#WHITMAN COLLEGEN/A         47  33  58  S6      30.16F
#WAITSBURG 5S   N/A         42  34  73  S9      30.19F
#WAITSBURG 8N   N/A         40  N/A N/A S7      30.08S
#WHITMAN MISSIONN/A         49  34  56  SW17    30.11F WCI 43
$$

WAZ030-040910-
BLUE MOUNTAINS...WASHINGTON

CITY            SKY/WX      TMP DP  RH  WIND    PRES   REMARKS
#DIXIE 5SE      N/A         37  30  75  SW17G25 29.98F WCI 27
#SKI BLUEWOOD   N/A         30  27  88  S2      29.99F
$$

ORZ009-041-WAZ024-040910-
COLUMBIA RIVER GORGE

CITY            SKY/WX      TMP DP  RH  WIND    PRES   REMARKS
HOOD RIVER AP   LGT RAIN    43  41  93  E3      30.11F
THE DALLES AP   CLOUDY      48  38  68  NW15    30.10F WCI 42
#ARLINGTON AIRPON/A         45  36  70  SW7     30.09F
#ARLINGTON HS   N/A         46  33  60  CALM    30.01F
#CELILO DOT     N/A         48  34  58  SW6     N/A
#LYLE           N/A         47  42  83  W13     30.13F WCI 41
#MOSIER 1S      N/A         43  34  70  W6      N/A
#MURDOCK        N/A         47  40  76  W8      30.08F
#RUFUS DOT      N/A         48  38  68  W16     N/A    WCI 42
#SMITHVILLE     N/A         46  41  83  N12     30.06F WCI 40

$$

ORZ510-040910-
NORTH CENTRAL OREGON

CITY            SKY/WX      TMP DP  RH  WIND    PRES   REMARKS
#ANTELOPE       N/A         33  28  82  NE1     30.01F
#CHENOWITH 1W   N/A         40  36  85  NW10    N/A
#COW CYN RST AREN/A         37  N/A N/A SW8     N/A
#DUFUR 9E       N/A         40  33  76  SW15    30.15F WCI 32
#GRASS VALLEY 1SN/A         41  34  76  SW18G26 30.00F WCI 32
#KENT DOT       N/A         37  23  56  N8      N/A
#MAUPIN SCHOOL  N/A         47  37  68  W7      30.14F
#MORO SCHOOL    N/A         40  37  89  SW5     30.06F
#SHANIKO 5WSW   N/A         34  23  64  N10     N/A
#SHANIKO 4NW    N/A         33  28  82  SW5     30.05F
#WAPANITIA AIRPON/A         43  34  70  W9      30.14F
#WASCO DOT      N/A         40  33  76  W5      N/A
#WASCO 5NE      N/A         39  33  79  SW3     30.10F
$$

ORZ511-040910-
CENTRAL OREGON

CITY            SKY/WX      TMP DP  RH  WIND    PRES   REMARKS
BEND AIRPORT    PTCLDY      41  27  57  SW24    30.09F WCI 31
MADRAS AIRPORT  PTCLDY      39  27  62  S18     30.11F WCI 30
PRINEVILLE AP   MOCLDY      28  25  88  CALM    30.12F
REDMOND AIRPORT PTCLDY      32  23  69  E5      30.11F
#ASHWOOD SCHOOL N/A         37  30  75  S6      30.04F
#BEND 1SW       N/A         36  28  72  SW3     N/A
#BEND-AWBREY    N/A         37  28  70  SW10    30.15F
#BEND-KIM LN    N/A         30  25  81  SW1     30.02F
#CULVER         N/A         38  27  64  S3      30.08F
#CULVER 8W      N/A         42  27  55  SW8     30.08F
#LAKE BILLY CHINN/A         43  N/A N/A SW6     30.17F
#MADRAS 4S      N/A         N/A N/A N/A N12     30.16F
#POWELL BUTTE 3EN/A         33  26  75  E5      N/A
#POWELL BUTTE   N/A         41  27  57  S6      30.05F
#PRINEVILLE 3N  N/A         27  24  88  CALM    30.19F

$$


ORZ509-040910-
EAST SLOPES OF OREGON CASCADES

CITY            SKY/WX      TMP DP  RH  WIND    PRES   REMARKS
SISTERS AWOS    N/A         34  27  75  CALM    30.07F
#BLUE BOX PASS  N/A         32  N/A N/A NW5     N/A
#CAMP SHERMAN   N/A         39  29  67  E1      30.22F
#LA PINE DOT    N/A         28  24  85  E3      N/A
#LA PINE 4NW    N/A         26  22  85  CALM    30.27F
#LAVA BUTTE DOT N/A         35  22  59  SE6     N/A
#SISTERS AIRPOR N/A         32  30  92  CALM    30.17S
#SISTERS ODOT   N/A         33  N/A N/A CALM    N/A
#SISTERS 3N     N/A         32  22  66  CALM    30.08F
#SUNRIVER       N/A         32  28  85  CALM    30.23F
#SUTTLE LK DOT  N/A         N/A N/A N/A NE6     N/A
#TUMALO 3W      N/A         39  30  70  S7      30.02F
#WANOGA BUTTE D N/A         26  25  96  CALM    N/A

$$

ORZ044-040910-
LOWER COLUMBIA BASIN...OREGON

CITY            SKY/WX      TMP DP  RH  WIND    PRES   REMARKS
HERMISTON       CLOUDY      47  31  53  S12     30.09F WCI 42
#BOARDMAN SCHOOLN/A         45  33  63  S5      30.09F
#I-84 EX 198 DOTN/A         45  32  60  N9      N/A
#UMATILLA       N/A         47  32  56  S6      30.04F
$$

ORZ507-040910-
NORTHERN FOOTHILLS OF THE BLUES

CITY            SKY/WX      TMP DP  RH  WIND    PRES   REMARKS
PENDLETON AIRPT CLOUDY      44  29  55  SW9     30.09F
#ADAMS 3WNW     N/A         41  33  73  CALM    30.13R
#ATHENA         N/A         43  32  65  S2      30.15F
#CAYUSE         N/A         44  32  62  E3      30.11F
#HELIX SCHOOL   N/A         42  33  70  N7      30.12F
#HELIX 3N       N/A         41  31  67  SW12    30.04F WCI 34
#HOLDMAN 5SE    N/A         43  33  67  SW5     30.07F
#HOLDMAN 6E     N/A         42  32  67  S7      29.92F
#M-F GROVE ELEM N/A         46  29  51  SW13    30.05F WCI 40
#M-FREEWATER 5SEN/A         45  32  60  S13G26  30.08F WCI 39
#PENDLETON DNTN N/A         45  28  51  CALM    30.13S
#PDT AQUATIC CTRN/A         45  29  53  W1      30.10F
#PDT SUNRIDGE   N/A         43  31  62  E1      30.11F
#PENDLETON 7NW  N/A         44  32  62  CALM    27.60S
#PILOT ROCK 1S  N/A         42  27  55  CALM    30.10F
#PILOT ROCK     N/A         42  31  65  CALM    30.10F
#TUTUILLA       N/A         42  33  70  CALM    30.11F
#UMAPINE 2E     N/A         48  35  60  SW7     30.07F
#WESTON SCHOOL  N/A         42  27  55  SW2     29.99F

$$

ORZ508-040910-
SOUTHERN FOOTHILLS OF THE BLUES

CITY            SKY/WX      TMP DP  RH  WIND    PRES   REMARKS
LEXINGTON       CLOUDY      45  28  51  S12     30.10F WCI 39
#AJAX           N/A         41  25  53  S17G25  27.81F WCI 33
#CONDON SCHOOL  N/A         37  31  79  S10     30.03F
#CONDON 5W      N/A         35  28  75  SW14    30.02F WCI 26
#HEPPNER EOC    N/A         43  30  60  SW6     30.05F
#HEPPNER 4NE    N/A         39  29  67  S5      30.12F
#LEXINGTON 2SE  N/A         46  30  53  SW8     30.05F
#MIKKALO        N/A         43  30  60  W7      30.17F
#OLEX 4N        N/A         43  34  70  SW7     30.08F
#RUGGS 5NE      N/A         39  27  62  SW15    30.17F WCI 31
#RUGGS 2SW      N/A         40  28  62  W9      30.14F

$$

ORZ502-503-040910-
BLUE MOUNTAINS

CITY            SKY/WX      TMP DP  RH  WIND    PRES   REMARKS
#BATTLE MTN DOT N/A         32  27  82  SW2     N/A
#GREENHORN 9SW  N/A         29  29  100 CALM    26.30F
#LADD CYN SMT   N/A         32  30  92  SE8     N/A
#LADD CREEK ODOTN/A         33  29  85  SW5     N/A
#LONG CREEK HS  N/A         33  32  96  CALM    30.09F
#N POWDER DOT   N/A         31  30  96  CALM    N/A
#PIKES PEAK     N/A         35  27  72  SW23G30 27.99S WCI 23
#TOLLGATE       N/A         27  26  96  CALM    29.88F
#TROY SCHOOL    N/A         39  37  92  CALM    29.98F
#UKIAH          N/A         32  30  92  CALM    30.08F
#WESTON 4E      N/A         36  30  79  S5      30.11S
$$

ORZ505-040910-
JOHN DAY BASIN

CITY            SKY/WX      TMP DP  RH  WIND    PRES   REMARKS
JOHN DAY        CLOUDY      38  28  67  SW7     30.12F
#ANTELOPE 9ESE  N/A         36  30  79  SW1     N/A
#DAYVILLE SCHOOLN/A         34  28  78  VRB1    30.10S
#MITCHELL       N/A         34  29  82  CALM    30.25F
#MITCHELL 8NW   N/A         34  26  72  CALM    30.34F
#MONUMENT HS    N/A         35  30  82  CALM    30.09F
#MT. VERNON 5SE N/A         37  27  67  CALM    30.06F
#SPRAY SCHOOL   N/A         36  N/A N/A CALM    N/A
$$

ORZ506-040910-
OCHOCO AND JOHN DAY HIGHLANDS

CITY            SKY/WX      TMP DP  RH  WIND    PRES   REMARKS
#BUCK CREEK DOT N/A         40  29  64  SW21    N/A    WCI 30
#HORSE RIDGE DO N/A         39  25  57  SW3     N/A
#KEYES SMT DOT  N/A         35  26  69  SW23G30 N/A    WCI 23
#PAULINA SCHOOL N/A         29  25  85  CALM    N/A
#PINE MTN OBS   N/A         33  27  78  S7      N/A
#PRAIRIE CITY   N/A         29  25  85  CALM    30.30R
#SENECA         N/A         24  N/A N/A CALM    N/A
#SENECA 9NW     N/A         24  22  92  CALM    30.25F
$$

ORZ049-040910-
GRANDE RONDE VALLEY

CITY            SKY/WX      TMP DP  RH  WIND    PRES   REMARKS
LA GRANDE       CLOUDY      39  25  57  S8      30.10F
#COVE           N/A         36  32  85  SE1     30.13F
#COVE SCHOOL    N/A         36  31  82  CALM    30.12S
#COVE 6NW       N/A         36  31  82  CALM    30.19R
#ELGIN 3N       N/A         35  28  75  CALM    30.05F
#ELGIN 1E       N/A         38  30  73  CALM    N/A
#IMBLER SCHOOL  N/A         36  31  82  S2      30.05F
#ISLAND CITY 4N N/A         45  44  96  CALM    30.17F
#LADD CYN DOT   N/A         37  32  82  S7      N/A
#UNION 1S       N/A         37  31  79  SE10    30.19F
$$

ORZ050-040910-
WALLOWA COUNTY

CITY            SKY/WX      TMP DP  RH  WIND    PRES   REMARKS
JOSEPH AIRPORT  CLOUDY      30  27  88  CALM    30.05F
#IMNAHA SCHOOL  N/A         40  30  67  N1      30.09F
#JOSEPH 3N      N/A         30  22  72  S1      30.06F
#JOSEPH 3W      N/A         N/A N/A N/A SW7     29.88F
#LOSTINE        N/A         35  27  72  E5      29.93F
#LOSTINE 3SE    N/A         35  25  66  S5      30.05F
#MT HOWARD 8000 N/A         23  N/A N/A SW8     29.91F
#PROMISE 1S     N/A         34  28  78  NE1     30.23F
#WALLOWA SCHOOL N/A         36  28  72  CALM    30.04F



$$



USA.gov is the U.S. government's official web portal to all federal, state and local government web resources and services.